Regional Weather Roundup
Issued by NWS

Home | Current Version | Previous Version | Text Only | Print | Product List | Glossary On
Versions: 1 2 3 4 5 6 7 8 9 10 11 12 13 14 15 16 17 18 19 20 21 22 23 24 25 26 27 28 29 30 31 32 33 34 35 36 37 38 39 40 41 42 43 44 45 46 47 48 49 50
000
ASUS43 KMKX 080300
RWRWI

WISCONSIN REGIONAL WEATHER ROUNDUP
NATIONAL WEATHER SERVICE MILWAUKEE/SULLIVAN WI
1000 PM CDT TUE JUL 07 2015

NOTE: "FAIR" INDICATES FEW OR NO CLOUDS BELOW 12,000 FEET WITH NO
SIGNIFICANT WEATHER AND/OR OBSTRUCTIONS TO VISIBILITY.

WIZ001-002-006>008-014>016-023>028-080400-
NORTHWEST WISCONSIN

CITY           SKY/WX    TMP DP  RH WIND       PRES   REMARKS
SUPERIOR ARPT  CLEAR     57  51  82 S5        30.09R
ASHLAND        CLEAR     54  50  86 S5        30.11R
HAYWARD        CLEAR     55  52  89 CALM      30.13R
SIREN          CLEAR     57  50  78 CALM      30.12R
CUMBERLAND     CLEAR     57  50  77 CALM      30.12S
RICE LAKE      CLEAR     57  52  81 CALM      30.13S
CHETEK         NOT AVBL
LADYSMITH      CLEAR     57  48  72 CALM      30.14R
EAU CLAIRE     NOT AVBL
MENOMONIE      PTCLDY    62  51  67 CALM      30.11
NEW RICHMOND   PTCLDY    58  53  82 CALM      30.12R
OSCEOLA        PTCLDY    60  55  83 CALM      30.13S
$$

WIZ003>005-009-010-017-018-080400-
NORTH CENTRAL WISCONSIN

CITY           SKY/WX    TMP DP  RH WIND       PRES   REMARKS
MANITOWISH WTR CLEAR     49  49 100 CALM      30.13R
ARBOR VITAE    CLEAR     54  49  84 CALM      30.13R
WOODRUFF       CLEAR     54  49  84 CALM      30.13R
RHINELANDER    CLEAR     49  46  90 CALM      30.14R
EAGLE RIVER    PTCLDY    50  45  81 CALM      30.12S
LAND O LAKES   CLEAR     48  46  93 CALM      30.14R
PHILLIPS       CLEAR     51  48  90 CALM      30.12S
TOMAHAWK       CLEAR     50  47  92 CALM      30.13S
MEDFORD        CLEAR     52  49  91 CALM      30.13R
MERRILL        CLEAR     53  51  93 CALM      30.12S
$$

WIZ029-030-035-036-043>047-080400-
CENTRAL WISCONSIN

CITY           SKY/WX    TMP DP  RH WIND       PRES   REMARKS
WAUSAU         CLEAR     60  47  61 N5        30.10R
MOSINEE        CLEAR     57  48  72 N3        30.12R
MARSHFIELD     CLEAR     58  50  75 CALM      30.12R
STEVENS POINT  CLEAR     55  51  86 CALM      30.11R
WAUPACA        CLEAR     58  52  81 CALM      30.11R
WAUTOMA        NOT AVBL
WISC RAPIDS    CLEAR     56  50  80 CALM      30.12R
CAMP DOUGLAS   NOT AVBL
$$

WIZ011>013-019>022-031-037>040-048>050-080400-
NORTHEAST WISCONSIN

CITY           SKY/WX    TMP DP  RH WIND       PRES   REMARKS
ANTIGO         CLEAR     53  50  90 CALM      30.13R
SHAWANO        CLEAR     59  51  73 CALM      30.11R
OCONTO         CLEAR     55  55 100 CALM      30.10R
STURGEON BAY   CLEAR     54  46  76 CALM      30.13R
GREEN BAY      CLEAR     57  50  77 SE7       30.11R
MANITOWOC      NOT AVBL
APPLETON       PTCLDY    61  46  59 CALM      30.11R
CLINTONVILLE   CLEAR     59  50  72 CALM      30.10R
OSHKOSH        CLEAR     56  51  84 S7        30.11R
$$

WIZ032>034-041-042-053>061-080400-
SOUTHWEST WISCONSIN

CITY           SKY/WX    TMP DP  RH WIND       PRES   REMARKS
LA CROSSE      CLOUDY    65  54  67 CALM      30.10R
SPARTA         MOCLDY    57  52  84 CALM      30.11R
VIROQUA        CLOUDY    63  50  61 CALM      30.12R
BOSCOBEL       CLOUDY    62  55  77 CALM      30.12R
PRAIRIE DU CHI MOCLDY    59  51  75 E3        30.11R
PLATTEVILLE    CLEAR     57  52  82 NE5       30.11R
$$

WIZ056-057-062-063-064-067-068-080400-
SOUTH CENTRAL WISCONSIN

CITY           SKY/WX    TMP DP  RH WIND       PRES   REMARKS
REEDSBURG      CLOUDY    62  54  75 CALM      30.10R
BARABOO/DELLS  CLOUDY    61  55  79 CALM      30.11R
LONE ROCK      NOT AVBL
MINERAL POINT  MOCLDY    61  50  67 N3        30.12R
MADISON        MOCLDY    62  53  72 CALM      30.11R
MIDDLETON      CLOUDY    63  58  84 CALM      30.11R
WATERTOWN      MOCLDY    58  52  80 E6        30.11R
MONROE         PTCLDY    59  52  77 N3        30.11R
JANESVILLE     CLEAR     61  48  63 CALM      30.10R
$$

WIZ051-052-058>065-066-070>072-080400-
SOUTHEAST WISCONSIN

CITY           SKY/WX    TMP DP  RH WIND       PRES   REMARKS
MILWAUKEE      PTCLDY    56  46  69 N6        30.11R
WAUKESHA       CLEAR     54  46  76 NE5       30.12R
MILWAUKEE/TIMM CLEAR     54  45  71 N6        30.11R
RACINE         CLEAR     56  48  74 N3        30.12R
BURLINGTON     CLEAR     52  48  87 CALM      30.11R
KENOSHA        CLEAR     53  47  79 CALM      30.12R
FOND DU LAC    PTCLDY    57  51  80 S5        30.12R
SHEBOYGAN      CLEAR     53  51  93 W3        30.12R
WEST BEND      CLEAR     52  48  87 CALM      30.12R
JUNEAU         CLOUDY    59  52  77 E7        30.12R
$$

LSZ147-162-080400-
LAKE SUPERIOR

STATION/POSITION TIME  TEMP    WIND        PRES    WAVE
                       AIR SEA DIR/SP/G            HT/PER
                 (UTC) (F)     (DEG/KT/KT) (MB)    (FT/S)
W MID LAKE BUOY  0150   47 39  220/  6/  6 1018.9F   1
DEVILS ISLAND    0200   64     180/  8/ 10 1018.7F
PORT WING        0240   61     130/  3/  4 1019.0R
SAXON HARBOR     0200   59     180/  3/  4 1019.0S
$$

LMZ867-665-643>646-080400-
LAKE MICHIGAN

STATION/POSITION TIME  TEMP    WIND        PRES    WAVE
                       AIR SEA DIR/SP/G            HT/PER
                 (UTC) (F)     (DEG/KT/KT) (MB)    (FT/S)
CHAMBERS ISLAND  0200   63      30/ 11/ 14 1018.6R
S GREEN BAY BUOY 0230   65 68  140/ 10/ 14 1020.3R
N MID LAKE BUOY  0150   56 51  340/  4/  4 1018.5R   1/ 4
NORTHPORT PIER   0200   62      30/  1/  4 1018.6R
SISTER BAY       0214   58        CALM       N/A
ALGOMA LAKESHORE 0126             CALM       N/A
KEWAUNEE LAKESHO 0200   58      CALM  /  1 1018.5R
SHEBOYGAN LAKESH 0200   58     320/  2/  2 1019.6R
PORT WASHINGTON  0200   59     320/  2/  3 1020.0S
ATWATER BUOY     0200   59 59  350/ 10/ 12 1020.1F
MILWAUKEE LAKESH 0200   59     340/  7/  9   N/A
KENOSHA   LAKESH 0200   59      10/ 10/ 13 1018.6S
$$

TC  - TEMPERATURE IN CELSIUS
VSB - VISIBILITY IN STATUTE MILES
WCI - WIND CHILL INDEX
HX  - HEAT INDEX




USA.gov is the U.S. government's official web portal to all federal, state and local government web resources and services.